Location: Kopernik Observatory
(42.0014°N, 76.0372°W)
Time: 09:55:17
(UTC-04:00)

Daily predictions for brighter satellites

Satellite Brightness Start Highest point End
(mag) Time Altitude Azimuth Time Altitude Azimuth Time Altitude Azimuth
Cosmos 1271 Rocket 4.4 19:47:24 10° ESE 19:49:45 15° E 19:52:06 10° NE
Cosmos 1758 4.0 19:46:46 10° SSE 19:50:20 32° E 19:53:55 10° NNE
Lacrosse 5 2.6 19:48:46 10° WSW 19:53:46 56° NW 19:58:46 10° NE
Cosmos 1953 2.9 19:52:59 10° SSE 19:56:43 36° E 20:00:26 10° NNE
Cosmos 1674 3.9 19:53:45 10° NNE 19:56:48 22° ENE 19:59:50 10° SE
Cosmos 1766 3.5 19:55:14 10° SSW 19:59:06 77° W 20:03:00 10° N
Resurs 1-3 4.1 19:56:25 10° SE 20:00:31 41° ENE 20:04:40 10° N
Helios 1B rocket 3.6 20:04:40 10° NE 20:07:57 22° E 20:11:11 10° SSE
Meteor 1-4 Rocket 2.6 20:05:23 10° S 20:08:45 51° E 20:12:09 10° NNE
In-Cosmos 22 4.1 20:05:11 10° N 20:10:31 88° W 20:15:48 10° S
Spot 2 Rocket 3.5 20:09:04 10° SSE 20:14:07 66° ENE 20:19:11 10° N
Cosmos 2098 Rocket 4.5 20:07:12 10° S 20:14:25 63° E 20:21:53 10° NNE
Timation 2 Rocket 4.1 20:08:48 10° NNW 20:15:00 54° ENE 20:20:55 10° SE
Lacrosse 4 Rocket 4.3 20:12:41 10° W 20:15:09 16° NW 20:17:38 10° N
Lacrosse 5 rocket 1.9 20:11:57 10° NNW 20:15:42 38° NE 20:18:26 15° E
Cosmos 1447 Rocket 4.5 20:11:26 10° N 20:17:32 63° E 20:23:37 10° SSE
Cosmos 1076 Rocket 3.4 20:15:41 10° N 20:19:55 67° E 20:24:08 10° SSE
Cosmos 1544 3.2 20:17:52 10° S 20:21:31 82° W 20:25:13 10° N
Cosmos 2344 4.2 20:14:15 10° SW 20:21:50 64° NW 20:30:35 10° NNE
Cosmos 1867 3.5 20:17:49 10° SSW 20:23:15 82° ESE 20:28:45 10° NE
H-2A R/B (2) 3.8 20:21:48 10° SSW 20:23:46 14° S 20:26:47 10° SE
Okean 3 Rocket 3.9 20:19:46 10° NNW 20:24:09 70° W 20:28:33 10° S
Cosmos 2173 Rocket 4.4 20:18:35 10° SSE 20:24:15 40° E 20:30:01 10° NNE
CZ-2D R/B 3.2 20:20:32 10° SSE 20:24:21 64° ENE 20:28:13 10° N
FENGYUN 3A 4.1 20:19:02 10° S 20:24:24 68° WSW 20:29:47 10° NNW
Cosmos 1805 3.6 20:24:04 10° SSW 20:27:56 69° W 20:31:51 10° N
Cosmos 1833 Rocket 2.6 20:23:15 10° NNW 20:28:53 73° ENE 20:34:29 10° SSE
Helios 1A 3.2 20:26:17 10° SE 20:30:16 47° ENE 20:34:18 10° N
ALOS 3.2 20:25:52 10° S 20:30:25 51° W 20:34:59 10° NNW
Cosmos 482 Debris 4.0 20:29:35 10° NNW 20:31:08 22° NNE 20:31:15 22° NE
Meteor 1-21 Rocket 4.3 20:25:55 10° N 20:31:48 81° E 20:37:42 10° SSE
Envisat 3.6 20:28:31 14° SE 20:32:23 37° ENE 20:37:02 10° N
Abrixas 4.2 20:31:28 10° W 20:33:51 24° SW 20:35:43 13° SSE
Cosmos 1184 Rocket 4.1 20:32:06 10° NNE 20:34:50 22° ENE 20:35:05 22° E
Cosmos 2278 Rocket 3.7 20:34:00 10° SW 20:39:16 39° WNW 20:44:35 10° N
ATLAS 5 CENTAUR R/B 1.7 20:36:58 10° SSW 20:41:37 77° SE 20:46:43 10° NE
SS 2 4.5 20:38:46 10° NNW 20:41:41 82° NE 20:43:10 29° SE
SeaSat 1 3.1 20:37:49 10° S 20:42:38 54° WSW 20:47:28 10° NW
Cosmos 1125 Rocket 3.9 20:37:59 10° SSW 20:43:08 66° WNW 20:48:22 10° NNE
Cosmos 1733 3.2 20:40:35 10° S 20:44:23 61° E 20:48:14 10° NNE
Spot 1 4.3 20:40:07 10° SSE 20:44:47 73° ENE 20:49:46 10° N
Geosat 4.0 20:39:48 10° NNE 20:44:48 62° ESE 20:49:45 10° SSW
ERS-1 Rocket 4.0 20:43:16 22° E 20:44:55 27° ENE 20:49:06 10° N
Cosmos 1048 Rocket 4.2 20:40:27 10° NNW 20:45:33 70° WSW 20:50:38 10° S
Cosmos 1470 2.7 20:42:03 10° S 20:45:59 69° E 20:49:57 10° NNE
Cosmos 1766 Rocket 3.6 20:42:08 10° N 20:46:38 87° W 20:51:07 10° S
GPS 2-05 Rocket1 4.0 20:44:21 10° WSW 20:47:28 29° S 20:48:14 26° SSE
Cosmos-2242 2.8 20:44:27 10° S 20:48:41 78° E 20:52:57 10° N
H-2A R/B 4.2 20:50:23 10° ENE 20:50:34 10° ENE 20:50:58 10° NE
GP-B 3.0 20:47:34 10° S 20:52:00 89° E 20:56:28 10° N
Cosmos 1356 Rocket 4.0 20:50:01 10° N 20:53:47 34° ENE 20:54:14 33° E
Cosmos 2016 Rocket 4.1 20:50:23 10° SSE 20:56:21 51° E 21:02:16 10° NNE
CZ-4B DEB 4.4 20:54:48 26° SSE 20:56:43 81° ENE 21:00:19 10° N
Cosmos 2297 4.4 20:51:46 10° SW 20:57:24 59° WNW 21:03:05 10° NNE
USA 186 1.9 20:58:06 39° SW 20:58:23 42° W 21:00:31 10° NNW
BREEZE-M DEB (TANK) 3.9 20:56:09 10° WSW 20:59:19 65° NNW 21:09:06 10° ENE
Cosmos 1340 Rocket 2.7 20:56:08 10° N 21:00:11 87° E 21:02:28 25° S
Resurs 01 Rocket 3.1 20:57:18 10° SSW 21:01:22 36° W 21:05:28 10° NNW
CZ-4B DEB 2.5 21:01:12 56° SSE 21:01:45 83° E 21:04:53 10° N
Cosmos 1725 Rocket 4.3 21:02:51 24° SE 21:06:03 42° E 21:11:48 10° NNE
Cosmos 2082 Rocket 3.1 21:03:34 10° NW 21:09:00 48° WSW 21:14:24 10° S
ISS -3.3 21:08:49 10° WSW 21:12:01 57° NNW 21:12:44 44° NNE
Meteor 1-29 3.1 21:10:03 10° N 21:13:32 73° WNW 21:16:41 12° SSW
ARGOS 4.3 21:13:46 26° ENE 21:13:52 26° ENE 21:18:12 10° N
Cosmos 2100 Rocket 4.2 21:08:54 10° SSW 21:15:13 76° W 21:21:38 10° N
Cosmos 1743 Rocket 3.5 21:13:19 10° N 21:17:47 85° W 21:19:40 35° S
Cosmos 1500 Rocket 3.4 21:14:29 10° N 21:18:47 71° E 21:19:25 59° SE
SL-08 R/B 4.5 21:12:35 10° S 21:18:52 65° E 21:25:14 10° NNE
Meteor 1-11 4.2 21:14:41 10° N 21:20:14 61° ENE 21:21:49 43° SE
Meteor 1-16 Rocket 4.2 21:15:32 10° S 21:21:21 73° E 21:27:18 10° NNE
SL-14 R/B 3.1 21:19:05 10° N 21:22:48 73° NE 21:22:48 73° NE
YAOGAN 6 3.4 21:24:20 42° NNE 21:24:20 42° NNE 21:27:08 10° N
CZ-3B DEB 4.1 21:16:55 10° W 21:24:12 28° NNW 21:28:08 10° NNE
Cosmos 1271 Rocket 4.2 21:21:39 10° SW 21:25:25 38° WNW 21:29:13 10° N
Cosmos 2058 3.6 21:22:15 10° N 21:25:21 39° NE 21:25:21 39° NE
Cosmos 2251 Rocket 3.4 21:21:51 10° NNW 21:27:12 83° ENE 21:28:42 49° SSE
Tsikada Rocket 4.0 21:21:22 10° N 21:27:30 59° E 21:29:09 45° SE
Cosmos 1328 3.8 21:26:10 10° N 21:30:09 77° W 21:30:24 73° SW
USA 215 3.2 21:28:15 10° NE 21:34:44 63° SE 21:41:11 10° SW
Lacrosse 5 4.3 21:34:06 10° WNW 21:37:43 19° NNW 21:41:19 10° NNE
Cosmos 1802 Rocket 4.4 21:33:00 10° SSW 21:39:02 63° W 21:45:12 10° N
Cosmos 2151 3.1 21:38:12 10° N 21:42:00 70° NNW 21:42:00 70° NNW
SPOT 5 3.4 21:42:54 49° ENE 21:42:54 49° ENE 21:47:40 10° N
Helios 1B rocket 4.4 21:39:38 10° N 21:43:15 30° WNW 21:46:50 10° SW
Meteor 2-1 Rocket 4.1 21:43:32 65° ESE 21:43:47 66° E 21:49:24 10° NNE
Cosmos 1939 Rocket 3.8 21:42:57 39° SW 21:43:51 46° W 21:47:52 10° NNW
Terra 4.0 21:52:12 14° NNE 21:52:12 14° NNE 21:53:17 10° NNE
Cosmos 1842 Rocket 4.5 21:50:28 26° SW 21:52:35 46° WNW 21:56:50 10° N
Lacrosse 5 rocket 3.1 21:51:33 10° WNW 21:54:09 24° WSW 21:54:09 24° WSW
Cosmos 1816 Rocket 4.3 21:50:25 10° N 21:56:39 82° E 21:57:23 70° SSE
Cosmos 1626 4.3 21:53:38 10° N 21:54:52 20° N 21:54:52 20° N
Cosmos 2369 Rocket 3.0 22:01:46 39° NE 22:01:46 39° NE 22:05:14 10° NNE
MetOp-B 4.1 22:02:47 80° N 22:02:47 80° N 22:07:53 10° NNW
USA 267 3.9 22:06:11 40° NE 22:07:24 44° NNE 22:13:30 10° NW
Gblst 52 Del rocket 4.2 22:02:26 10° SW 22:07:37 69° WSW 22:07:37 69° WSW
USA 245 4.3 22:09:51 77° NNE 22:09:51 77° NNE 22:15:50 10° N
Cosmos 2233 Rocket 3.8 22:10:13 79° NE 22:10:13 79° NE 22:16:05 10° N
NOAA 11 4.4 22:19:29 67° WNW 22:19:29 67° WNW 22:24:36 10° NNW
ERS-1 Rocket 4.1 22:23:15 37° WSW 22:23:31 37° W 22:28:12 10° NNW
Cosmos 1943 Rocket 4.5 22:28:51 13° NNE 22:28:51 13° NNE 22:29:24 10° NNE
ATLAS 5 CENTAUR R/B 4.4 22:23:24 10° W 22:26:58 20° NW 22:30:47 10° NNE
H-2A R/B 3.1 22:31:00 39° N 22:31:00 39° N 22:34:21 10° N
CZ-3 Stage 3 4.2 22:23:03 10° W 22:37:35 29° SW 22:37:49 29° SW
CZ-4C R/B 4.2 22:48:37 20° NNE 22:48:37 20° NNE 22:50:31 10° NNE
ARGOS 4.5 22:55:17 36° WNW 22:55:17 36° WNW 22:58:57 10° NNW
USA 215 4.1 23:11:26 10° NE 23:17:36 46° NNW 23:23:44 10° W
Lacrosse 5 4.5 23:19:37 10° NNW 23:22:01 15° N 23:22:01 15° N
Terra 4.5 23:31:04 16° NNW 23:31:04 16° NNW 23:32:07 10° NNW
Cosmos 2369 Rocket 4.5 23:43:23 18° WNW 23:44:15 19° NW 23:48:08 10° N
